(147782) = 2005 QN118

Discovered at Kitt Peak on 2005-08-28 by Spacewatch.

Orbit

Orbit type: Main Belt

Note: WebGL enabled browser required.

epoch2023-02-25.0
epoch JD2460000.5
perihelion date2021-11-23.43829
perihelion JD2459541.93829
argument of perihelion (°)319.36192
ascending node (°)152.41595
inclination (°)4.41964
eccentricity0.0804826
perihelion distance (AU)2.6325365
Tisserand w.r.t. Jupiter3.3
ΔV w.r.t. Earth (km/sec)10.2
semimajor axis (AU)2.8629545
mean anomaly (°)93.29964
mean daily motion (°/day)0.20346150
aphelion distance (AU)3.093
period (years)4.84
P-vector [x]-0.37190591
P-vector [y]0.87038944
P-vector [z]0.32265805
Q-vector [x]-0.92758435
Q-vector [y]-0.36181998
Q-vector [z]-0.09313207
absolute magnitude16.2
phase slope0.15
uncertainty0
referenceMPO 745323
observations used491
oppositions16
arc length (days)8273
first opposition used2000
last opposition used2023
residual rms (arc-secs)0.75
perturbers coarse indicatorM-v
perturbers precise indicator003Ek
first observation date used2000-10-23.0
last observation date used2023-06-18.0
computer nameMPCLINUX
JD of orbit computation2456465.533303
perihelion JD uncertainty (days)3.9484E-04
argument of perihelion uncertainty (°)1.2419E-04
ascending node uncertainty (°)9.5957E-05
inclination uncertainty (°)1.0845E-05
eccentricity uncertainty 5.9180E-08
perihelion distance uncertainty (AU)1.6158E-07
Minimum Orbit Intersection Distances (in AU)
for orbit epoch: 2460000.5, reference: E2023-M50
Mercury2.31374
Venus1.91732
Earth1.65053
Mars1.00027
Jupiter1.97935
Saturn6.40433
Uranus15.6964
Neptune26.9517

Observations

503 total observations over interval: 2000 10 23.02528 – 2023 06 18.341431
These data are available for download (format description).

Date (UT) J2000 RA J2000 Dec Magn Location Ref
2000 10 23.02528 21 28 41.49 -15 22 11.4 21.5 R I03 – European Southern Obs., La Silla--ASTROVIRTEL MPS 178530
2000 10 23.03676 21 28 41.70 -15 22 11.0 21.9 R I03 – European Southern Obs., La Silla--ASTROVIRTEL MPS 178530
2000 10 23.04796 21 28 41.86 -15 22 10.7 21.9 R I03 – European Southern Obs., La Silla--ASTROVIRTEL MPS 178530
2001 11 17.30426 03 50 20.26 +13 02 03.9 20.5   704 – Lincoln Laboratory ETS, New Mexico MPS 178530
2001 11 17.33432 03 50 18.70 +13 01 57.8 19.6   704 – Lincoln Laboratory ETS, New Mexico MPS 178530
2001 11 17.34923 03 50 17.86 +13 01 55.3 20.6   704 – Lincoln Laboratory ETS, New Mexico MPS 178530
2001 12 11.22116 03 30 32.18 +12 06 30.5 20.2   704 – Lincoln Laboratory ETS, New Mexico MPS 178530
2001 12 11.23638 03 30 31.57 +12 06 29.4 20.3   704 – Lincoln Laboratory ETS, New Mexico MPS 178530
2001 12 11.25162 03 30 30.95 +12 06 28.5 20.4   704 – Lincoln Laboratory ETS, New Mexico MPS 178530
2001 12 11.26686 03 30 30.37 +12 06 27.4 19.9   704 – Lincoln Laboratory ETS, New Mexico MPS 178530
2001 12 11.28208 03 30 29.65 +12 06 25.2 20.3   704 – Lincoln Laboratory ETS, New Mexico MPS 178530
2003 02 01.50774 11 46 26.91 +02 29 25.9 20.9 V 291 – LPL/Spacewatch II MPS 178530
2003 02 01.52747 11 46 26.65 +02 29 29.8 20.9 V 291 – LPL/Spacewatch II MPS 178530
2003 02 01.54723 11 46 26.36 +02 29 33.9 21.1 V 291 – LPL/Spacewatch II MPS 178530
2003 02 22.37538 11 37 10.81 +04 10 29.3 20.9 V 291 – LPL/Spacewatch II MPS 178530
2003 02 22.39842 11 37 09.86 +04 10 37.4 21.1 V 291 – LPL/Spacewatch II MPS 178530
2003 02 22.42148 11 37 08.92 +04 10 45.5 20.8 V 291 – LPL/Spacewatch II MPS 178530
2003 03 11.30522 11 24 44.35 +06 01 30.9 19.3   704 – Lincoln Laboratory ETS, New Mexico MPS 178530
2003 03 11.31844 11 24 43.75 +06 01 36.3 19.6   704 – Lincoln Laboratory ETS, New Mexico MPS 178530
2003 03 11.33180 11 24 43.02 +06 01 41.3 19.4   704 – Lincoln Laboratory ETS, New Mexico MPS 178530
2003 03 26.14713 11 13 43.63 +07 33 03.5 20.2   644 – Palomar Mountain/NEAT MPS 178530
2003 03 26.16818 11 13 42.74 +07 33 10.0 20.2   644 – Palomar Mountain/NEAT MPS 178530
2003 03 26.18931 11 13 41.86 +07 33 17.0 20.4   644 – Palomar Mountain/NEAT MPS 178530
2003 03 26.27705 11 13 38.04 +07 33 46.7 19.5 R 699 – Lowell Observatory-LONEOS MPS 178530
2003 03 26.29319 11 13 37.37 +07 33 52.2   699 – Lowell Observatory-LONEOS MPS 178530
2003 03 26.30936 11 13 36.79 +07 33 56.2   699 – Lowell Observatory-LONEOS MPS 178530
2003 03 26.32546 11 13 36.08 +07 34 02.4   699 – Lowell Observatory-LONEOS MPS 178530
2005 08 28.21265 22 45 21.27 -08 33 38.7 20.2 V 691 – Steward Observatory, Kitt Peak-Spacewatch MPS 140365
2005 08 28.23001 22 45 20.46 -08 33 45.1 20.1 V 691 – Steward Observatory, Kitt Peak-Spacewatch MPS 140365
2005 08 28.24744 22 45 19.64 -08 33 51.2 20.1 V 691 – Steward Observatory, Kitt Peak-Spacewatch MPS 140365
2005 09 01.21338 22 42 17.80 -08 57 35.0 20.9 V 691 – Steward Observatory, Kitt Peak-Spacewatch MPS 140365
2005 09 01.23067 22 42 16.97 -08 57 41.5 21.2 V 691 – Steward Observatory, Kitt Peak-Spacewatch MPS 140365
2005 09 01.24804 22 42 16.15 -08 57 47.7 21.3 V 691 – Steward Observatory, Kitt Peak-Spacewatch MPS 140365
2005 10 01.15845 22 22 30.00 -11 29 32.6 21.4 V G96 – Mt. Lemmon Survey MPS 178530
2005 10 01.16506 22 22 29.78 -11 29 34.1 21.4 V G96 – Mt. Lemmon Survey MPS 178530
2005 10 01.17174 22 22 29.53 -11 29 35.5 21.4 V G96 – Mt. Lemmon Survey MPS 178530
2005 10 01.17838 22 22 29.38 -11 29 36.9 20.9 V G96 – Mt. Lemmon Survey MPS 178530
2005 11 06.17351 22 20 22.09 -12 07 19.3 22.4 V G96 – Mt. Lemmon Survey MPS 178530
2005 11 06.18211 22 20 22.20 -12 07 18.0 21.6 V G96 – Mt. Lemmon Survey MPS 178530
2005 11 06.19072 22 20 22.34 -12 07 17.4 22.4 V G96 – Mt. Lemmon Survey MPS 178530
2005 11 06.19933 22 20 22.52 -12 07 16.7 21.8 V G96 – Mt. Lemmon Survey MPS 178530
2006 12 01.37352 05 05 11.58 +15 57 38.0 19.1 V G96 – Mt. Lemmon Survey MPS 190510
2006 12 01.37641 05 05 11.40 +15 57 37.4 19.3 V G96 – Mt. Lemmon Survey MPS 190510
2006 12 01.37927 05 05 11.25 +15 57 37.3 19.3 V G96 – Mt. Lemmon Survey MPS 190510
2006 12 01.38214 05 05 11.07 +15 57 37.2 19.3 V G96 – Mt. Lemmon Survey MPS 190510
2006 12 09.33269 04 57 52.79 +15 48 24.3 19.8 R 644 – Palomar Mountain/NEAT MPS 192236
2006 12 09.33879 04 57 52.43 +15 48 24.5 19.9 R 644 – Palomar Mountain/NEAT MPS 192236
2006 12 09.35337 04 57 51.61 +15 48 23.0 19.2 R 644 – Palomar Mountain/NEAT MPS 192236
2006 12 09.35940 04 57 51.25 +15 48 22.6 19.5 R 644 – Palomar Mountain/NEAT MPS 192236
2006 12 09.37399 04 57 50.45 +15 48 21.6 19.5 R 644 – Palomar Mountain/NEAT MPS 192236
2006 12 09.38013 04 57 50.08 +15 48 21.5 19.5 R 644 – Palomar Mountain/NEAT MPS 192236
2006 12 24.29116 04 44 46.39 +15 41 27.9 18.7 V 703 – Catalina Sky Survey MPS 192236
2006 12 24.29764 04 44 46.10 +15 41 27.0 18.6 V 703 – Catalina Sky Survey MPS 192236
2006 12 24.30410 04 44 45.85 +15 41 27.0 19.2 V 703 – Catalina Sky Survey MPS 192236
2006 12 24.31058 04 44 45.49 +15 41 27.7 18.9 V 703 – Catalina Sky Survey MPS 192236
2006 12 26.06315 04 43 24.63 +15 41 41.3 18.2 R A24 – New Millennium Observatory, Mozzate MPS 210568
2008 03 01.33511 12 44 21.10 -01 26 07.1 19.8 V 691 – Steward Observatory, Kitt Peak-Spacewatch MPS 241863
2008 03 01.35274 12 44 20.54 -01 26 01.5 19.8 V 691 – Steward Observatory, Kitt Peak-Spacewatch MPS 241863
2008 03 01.36801 12 44 20.08 -01 25 56.9 19.9 V 691 – Steward Observatory, Kitt Peak-Spacewatch MPS 241863
2008 03 09.28283 12 39 51.36 -00 40 52.6   691 – Steward Observatory, Kitt Peak-Spacewatch MPS 243400
2008 03 09.29798 12 39 50.77 -00 40 46.9   691 – Steward Observatory, Kitt Peak-Spacewatch MPS 243400
2008 03 09.31312 12 39 50.16 -00 40 41.7   691 – Steward Observatory, Kitt Peak-Spacewatch MPS 243400
2008 03 13.27423 12 37 12.82 -00 16 11.4 20.0 V 691 – Steward Observatory, Kitt Peak-Spacewatch MPS 243400
2008 03 13.29197 12 37 12.08 -00 16 05.4 19.8 V 691 – Steward Observatory, Kitt Peak-Spacewatch MPS 243400
2008 03 13.30969 12 37 11.36 -00 15 58.6 19.8 V 691 – Steward Observatory, Kitt Peak-Spacewatch MPS 243400
2008 03 26.39525 12 27 28.18 +01 08 13.5 19.7 V G96 – Mt. Lemmon Survey MPS 244500
2008 03 26.40134 12 27 27.86 +01 08 15.5 19.6 V G96 – Mt. Lemmon Survey MPS 244500
2008 03 26.40744 12 27 27.57 +01 08 17.7 19.6 V G96 – Mt. Lemmon Survey MPS 244500
2008 03 26.41352 12 27 27.28 +01 08 20.1 19.5 V G96 – Mt. Lemmon Survey MPS 244500
2008 03 29.30820 12 25 13.53 +01 26 38.1 19.4   704 – Lincoln Laboratory ETS, New Mexico MPS 245561
2008 03 29.32035 12 25 13.03 +01 26 42.5 20.0   704 – Lincoln Laboratory ETS, New Mexico MPS 245561
2008 03 29.33231 12 25 12.41 +01 26 48.0 19.6   704 – Lincoln Laboratory ETS, New Mexico MPS 245561
2008 03 29.34440 12 25 11.79 +01 26 51.4 20.1   704 – Lincoln Laboratory ETS, New Mexico MPS 245561
2008 03 29.35636 12 25 11.27 +01 26 55.2 19.4   704 – Lincoln Laboratory ETS, New Mexico MPS 245561
2008 04 13.33230 12 14 24.72 +02 50 37.0 20.0 V G96 – Mt. Lemmon Survey MPS 247534
2008 04 13.33959 12 14 24.46 +02 50 38.9 19.8 V G96 – Mt. Lemmon Survey MPS 247534
2008 04 13.34691 12 14 24.14 +02 50 41.3 20.0 V G96 – Mt. Lemmon Survey MPS 247534
2008 04 13.35409 12 14 23.85 +02 50 43.2 19.9 V G96 – Mt. Lemmon Survey MPS 247534
2008 04 14.27750 12 13 49.04 +02 55 01.4 20.1 V G96 – Mt. Lemmon Survey MPS 247534
2008 04 14.28407 12 13 48.79 +02 55 03.1 20.1 V G96 – Mt. Lemmon Survey MPS 247534
2008 04 14.29082 12 13 48.54 +02 55 04.9 20.3 V G96 – Mt. Lemmon Survey MPS 247534
2008 04 14.29748 12 13 48.25 +02 55 06.9 20.3 V G96 – Mt. Lemmon Survey MPS 247534
2010 06 16.723216 23 42 29.72 -02 08 29.1   C51 – WISE MPS 334492
2010 06 16.78943 23 42 32.48 -02 08 14.0   C51 – WISE MPS 334492
2010 06 16.855520 23 42 35.34 -02 08 00.8   C51 – WISE MPS 334492
2010 06 16.921736 23 42 38.16 -02 07 47.3   C51 – WISE MPS 334492
2010 06 16.987824 23 42 41.009 -02 07 31.15   C51 – WISE MPS 926425
2010 06 17.120127 23 42 46.59 -02 07 05.7   C51 – WISE MPS 334492
2010 06 17.252432 23 42 52.28 -02 06 36.3   C51 – WISE MPS 334492
2010 06 17.384735 23 42 57.78 -02 06 08.5   C51 – WISE MPS 334492
